Location: Ward Pound Ridge Reservation
(41.2500°N, 73.6000°W)
Time: 22:25:06
(UTC-04:00)

Envisat - Pass Details

Date: 13 October 2017
Orbit: 764 x 766 km, 98.2° (Epoch: 22 October)

Event Time Altitude Azimuth Distance (km) Brightness Sun altitude
Exits shadow 19:16:46 15° 70° (ENE) 1,981 4.6 -12.2°
Maximum altitude 19:17:24 15° 61° (ENE) 1,963 4.6 -12.3°
Drops below altitude 10° 19:20:15 10° 27° (NNE) 2,309 5.2 -12.8°
Sets 19:23:28 0° 5° (N) 3,240 6.2 -13.4°
